Date String (YYYY-MM-DD hh:mm:ss) UTC,Instrument flags,absolute air pressure of the measurement (hPa),sample flow rate (lpm),inlet stack bypass flow (lpm),air temperature of the measurement (°C),ambient temperature measured by the external sensor (°C),aerosol sample conditioner tube jacket temperature (°C),OPC LED temperature (°C),internal box temperature (°C),relative humidity of the measurement (%),span deviation,mass concentration of particles derived from Lorenz-Mie calculation of OPC scattering (μg/m³),mass concentration of particles derived from Lorenz-Mie calculation of OPC scattering (μg/m³),mass concentration of particles derived from Lorenz-Mie calculation of OPC scattering (μg/m³)
DateTimeUTC,F1_M11,P_M11,Q1_M11,Q2_M11,T1_M11,T2_M11,T3_M11,T4_M11,T5_M11,U1_M11,ZSPAN_M11,X2_M11,X0_M11,X1_M11
2023-09-22 02:00:00,SystemResetWarning,0828.0,5.00,000.00,027.8,025.7,000.0,036.3,029.5,25.4,0000.0,0004.75,0017.63,0003.06
2023-09-22 02:01:00,SystemResetWarning,0828.1,5.00,000.00,027.9,026.0,000.0,036.3,029.5,25.2,0000.0,0004.67,0017.03,0003.04
2023-09-22 02:02:00,SystemResetWarning,0828.1,5.00,000.00,027.9,026.3,000.0,036.3,029.6,25.2,0000.0,0004.62,0016.95,0003.02
2023-09-22 02:03:00,SystemResetWarning,0828.1,5.00,000.00,027.9,026.5,000.0,036.3,029.7,25.2,0000.0,0004.53,0016.33,0003.00
2023-09-22 02:04:00,SystemResetWarning,0828.1,5.00,000.00,028.0,026.6,000.0,036.3,029.7,25.1,0000.0,0004.45,0015.88,0003.00
2023-09-22 02:05:00,SystemResetWarning,0828.1,4.98,000.00,028.0,026.8,000.0,036.3,029.8,25.0,0000.0,0004.39,0016.08,0003.00
2023-09-22 02:06:00,SystemResetWarning,0828.1,4.99,000.00,028.1,026.9,000.0,036.3,029.8,24.9,0000.0,0004.38,0016.91,0003.02
2023-09-22 02:07:00,SystemResetWarning,0828.2,5.01,000.00,028.1,027.0,000.0,036.3,029.9,24.8,0000.0,0004.34,0018.11,0003.02
2023-09-22 02:08:00,SystemResetWarning,0828.2,5.01,000.00,028.1,027.1,000.0,036.4,029.9,24.8,0000.0,0004.36,0018.33,0003.02
2023-09-22 02:09:00,SystemResetWarning,0828.2,5.01,000.00,028.2,027.1,000.0,036.4,030.0,24.7,0000.0,0004.37,0017.77,0003.01
2023-09-22 02:10:00,SystemResetWarning,0828.2,4.98,000.00,028.2,025.9,000.0,036.4,029.6,24.7,0000.0,0004.35,0017.45,0003.02
2023-09-22 02:11:00,SystemResetWarning,0828.1,5.01,000.00,028.0,024.6,000.0,036.3,029.3,24.8,0000.0,0004.32,0017.03,0003.03
2023-09-22 02:12:00,SystemResetWarning,0828.1,5.01,000.00,027.9,024.5,000.0,036.3,029.3,24.9,0000.0,0004.29,0016.50,0003.02
2023-09-22 02:13:00,SystemResetWarning,0828.1,5.00,000.00,027.9,024.7,000.0,036.3,029.3,25.1,0000.0,0004.24,0016.25,0003.01
2023-09-22 02:14:00,SystemResetWarning,0828.2,4.99,000.00,027.8,025.1,000.0,036.3,029.3,25.2,0000.0,0004.20,0015.86,0003.01
2023-09-22 02:15:00,SystemResetWarning,0828.2,5.00,000.00,027.9,025.4,000.0,036.3,029.4,25.2,0000.0,0004.19,0015.95,0002.99
2023-09-22 02:16:00,SystemResetWarning,0828.2,5.01,000.00,027.9,025.7,000.0,036.3,029.5,25.2,0000.0,0004.13,0015.88,0002.97
2023-09-22 02:17:00,SystemResetWarning,0828.2,5.00,000.00,027.9,026.0,000.0,036.3,029.5,25.2,0000.0,0004.15,0015.04,0002.96
2023-09-22 02:18:00,SystemResetWarning,0828.2,4.99,000.00,027.9,026.2,000.0,036.3,029.6,25.2,0000.0,0004.16,0013.40,0002.94
2023-09-22 02:19:00,SystemResetWarning,0828.3,5.00,000.00,027.9,026.5,000.0,036.3,029.7,25.1,0000.0,0004.12,0012.91,0002.92
2023-09-22 02:20:00,SystemResetWarning,0828.3,5.02,000.00,028.0,026.6,000.0,036.3,029.7,25.1,0000.0,0004.05,0011.90,0002.89
2023-09-22 02:21:00,SystemResetWarning,0828.3,5.00,000.00,028.0,026.8,000.0,036.3,029.8,25.1,0000.0,0004.06,0011.19,0002.87
2023-09-22 02:22:00,SystemResetWarning,0828.4,4.99,000.00,028.1,026.9,000.0,036.3,029.8,25.0,0000.0,0004.06,0010.75,0002.85
2023-09-22 02:23:00,SystemResetWarning,0828.4,5.00,000.00,028.1,027.0,000.0,036.4,029.9,25.0,0000.0,0004.09,0010.72,0002.85
2023-09-22 02:24:00,SystemResetWarning,0828.4,5.00,000.00,028.2,027.1,000.0,036.4,030.0,25.0,0000.0,0004.12,0010.54,0002.83
2023-09-22 02:25:00,SystemResetWarning,0828.4,5.02,000.00,028.2,027.2,000.0,036.4,030.0,24.9,0000.0,0004.11,0010.31,0002.81
2023-09-22 02:26:00,SystemResetWarning,0828.4,4.99,000.00,028.2,027.2,000.0,036.4,030.0,24.9,0000.0,0004.12,0010.63,0002.78
2023-09-22 02:27:00,SystemResetWarning,0828.4,4.99,000.00,028.2,026.0,000.0,036.4,029.7,24.9,0000.0,0004.16,0010.48,0002.76
2023-09-22 02:28:00,SystemResetWarning,0828.4,5.00,000.00,028.1,024.6,000.0,036.4,029.4,25.0,0000.0,0004.10,0010.57,0002.72
2023-09-22 02:29:00,SystemResetWarning,0828.4,5.00,000.00,028.0,024.5,000.0,036.4,029.3,25.2,0000.0,0004.05,0010.46,0002.70
2023-09-22 02:30:00,SystemResetWarning,0828.4,5.01,000.00,027.9,024.7,000.0,036.4,029.3,25.3,0000.0,0004.06,0010.53,0002.69
2023-09-22 02:31:00,SystemResetWarning,0828.4,4.99,000.00,027.9,025.0,000.0,036.3,029.3,25.3,0000.0,0004.07,0010.51,0002.67
2023-09-22 02:32:00,SystemResetWarning,0828.4,5.00,000.00,027.9,025.4,000.0,036.3,029.4,25.3,0000.0,0004.02,0010.34,0002.68
2023-09-22 02:33:00,SystemResetWarning,0828.4,5.00,000.00,027.9,025.7,000.0,036.3,029.4,25.3,0000.0,0003.98,0010.34,0002.65
2023-09-22 02:34:00,SystemResetWarning,0828.4,5.00,000.00,027.9,026.0,000.0,036.3,029.5,25.3,0000.0,0003.95,0010.74,0002.62
2023-09-22 02:35:00,SystemResetWarning,0828.4,5.00,000.00,027.9,026.2,000.0,036.3,029.6,25.3,0000.0,0003.90,0011.05,0002.59
2023-09-22 02:36:00,SystemResetWarning,0828.4,5.00,000.00,028.0,026.4,000.0,036.3,029.6,25.2,0000.0,0003.88,0011.57,0002.57
2023-09-22 02:37:00,SystemResetWarning,0828.5,5.00,000.00,028.0,026.6,000.0,036.4,029.7,25.2,0000.0,0003.86,0011.70,0002.57
2023-09-22 02:38:00,SystemResetWarning,0828.5,5.00,000.00,028.0,026.7,000.0,036.4,029.8,25.1,0000.0,0003.83,0012.51,0002.56
2023-09-22 02:39:00,SystemResetWarning,0828.6,5.00,000.00,028.1,026.9,000.0,036.4,029.8,25.0,0000.0,0003.83,0012.42,0002.55
2023-09-22 02:40:00,SystemResetWarning,0828.6,4.99,000.00,028.1,027.0,000.0,036.4,029.8,25.0,0000.0,0003.80,0012.80,0002.53
2023-09-22 02:41:00,SystemResetWarning,0828.6,4.99,000.00,028.1,027.0,000.0,036.4,029.9,24.9,0000.0,0003.75,0012.81,0002.52
2023-09-22 02:42:00,SystemResetWarning,0828.6,5.00,000.00,028.2,027.1,000.0,036.4,030.0,24.8,0000.0,0003.71,0012.69,0002.51
2023-09-22 02:43:00,SystemResetWarning,0828.5,5.01,000.00,028.2,027.2,000.0,036.5,030.0,24.7,0000.0,0003.72,0012.74,0002.50
2023-09-22 02:44:00,SystemResetWarning,0828.5,5.00,000.00,028.2,026.1,000.0,036.4,029.7,24.7,0000.0,0003.70,0012.68,0002.49
2023-09-22 02:45:00,SystemResetWarning,0828.5,5.00,000.00,028.1,024.6,000.0,036.4,029.3,24.8,0000.0,0003.66,0012.38,0002.51
2023-09-22 02:46:00,SystemResetWarning,0828.5,5.00,000.00,028.0,024.4,000.0,036.4,029.2,24.9,0000.0,0003.66,0012.00,0002.51
2023-09-22 02:47:00,SystemResetWarning,0828.6,5.02,000.00,027.9,024.6,000.0,036.3,029.2,25.0,0000.0,0003.64,0011.51,0002.52
2023-09-22 02:48:00,SystemResetWarning,0828.6,5.00,000.00,027.8,024.9,000.0,036.3,029.3,25.1,0000.0,0003.63,0012.35,0002.50
2023-09-22 02:49:00,SystemResetWarning,0828.6,5.00,000.00,027.8,025.2,000.0,036.3,029.3,25.0,0000.0,0003.60,0011.46,0002.50
2023-09-22 02:50:00,SystemResetWarning,0828.6,4.99,000.00,027.8,025.6,000.0,036.3,029.4,25.0,0000.0,0003.59,0011.50,0002.50
2023-09-22 02:51:00,SystemResetWarning,0828.6,5.00,000.00,027.9,025.8,000.0,036.3,029.4,24.9,0000.0,0003.60,0012.20,0002.49
2023-09-22 02:52:00,SystemResetWarning,0828.6,4.99,000.00,027.9,026.1,000.0,036.3,029.5,24.9,0000.0,0003.63,0012.98,0002.49
2023-09-22 02:53:00,SystemResetWarning,0828.6,5.00,000.00,027.9,026.3,000.0,036.3,029.6,24.9,0000.0,0003.63,0013.63,0002.47
2023-09-22 02:54:00,SystemResetWarning,0828.6,5.00,000.00,027.9,026.5,000.0,036.3,029.6,24.8,0000.0,0003.62,0014.26,0002.45
2023-09-22 02:55:00,SystemResetWarning,0828.6,5.01,000.00,028.0,026.6,000.0,036.3,029.7,24.8,0000.0,0003.61,0014.65,0002.44
2023-09-22 02:56:00,SystemResetWarning,0828.6,5.01,000.00,028.0,026.7,000.0,036.3,029.7,24.7,0000.0,0003.61,0014.36,0002.41
2023-09-22 02:57:00,SystemResetWarning,0828.6,5.00,000.00,028.0,026.9,000.0,036.4,029.8,24.7,0000.0,0003.65,0014.25,0002.40
2023-09-22 02:58:00,SystemResetWarning,0828.6,4.99,000.00,028.1,026.9,000.0,036.4,029.8,24.6,0000.0,0003.64,0014.43,0002.38
2023-09-22 02:59:00,SystemResetWarning,0828.6,5.00,000.00,028.1,027.0,000.0,036.4,029.9,24.5,0000.0,0003.62,0013.68,0002.36
